GFSFLT2_250_rhum_000.txt.gz
RH
87 84 88 100 100 100 100 94 98 99 100 74 56 66 72 89 82 100 99 82 66 75 70 39 56 53 27 13 12 13 16 15
100 100 100 100 100 100 100 100 100 96 97 78 61 98 100 100 100 98 90 89 86 64 61 67 65 35 13 15 18 19 20 17
100 100 100 100 100 100 96 100 94 71 84 81 81 100 100 100 100 89 90 78 64 59 64 68 49 26 18 18 22 25 26 23
98 100 100 94 100 100 98 86 86 95 100 100 100 100 100 98 94 93 72 56 52 58 58 72 45 23 18 27 30 28 30 25
100 96 100 100 100 100 94 91 90 100 100 100 100 100 99 69 57 70 57 61 61 74 58 47 33 18 20 30 27 27 30 25
100 100 100 100 93 98 96 100 100 100 100 100 99 85 59 39 24 24 50 62 71 83 29 19 20 21 33 28 30 31 32 32
100 100 100 100 96 100 100 100 100 93 77 59 55 44 42 47 49 47 26 29 30 33 27 23 22 23 24 33 37 33 33 34
100 100 100 100 100 100 100 90 98 92 88 76 84 67 77 70 64 44 52 45 38 33 29 26 23 34 53 51 48 43 37 33
85 81 84 74 94 86 82 80 97 97 81 73 66 56 88 98 89 52 43 41 35 31 27 24 25 32 53 54 47 43 40 38
83 76 65 64 78 89 100 100 100 99 84 77 94 96 98 100 93 44 45 44 36 27 24 24 29 39 53 57 53 50 48 46
50 70 80 86 84 100 100 100 100 100 100 85 100 100 100 90 60 38 35 28 23 22 26 36 40 37 35 35 37 42 45 48
84 89 100 100 92 94 100 100 100 100 100 100 100 98 83 67 37 32 25 21 27 35 38 36 33 32 35 36 37 36 35 35
78 85 86 87 91 99 100 100 100 100 100 98 76 64 53 31 27 22 25 35 37 36 37 36 35 35 34 37 38 40 41 45
58 59 55 59 50 40 47 51 43 74 51 34 29 27 27 31 32 37 40 38 35 32 30 33 36 42 47 50 50 50 49 46
37 30 27 27 26 25 24 24 24 24 22 24 32 40 46 46 46 41 37 35 34 38 40 40 39 35 32 37 40 40 41 47
29 26 22 22 22 21 22 24 26 33 41 47 47 46 44 40 39 36 35 37 37 32 32 43 56 58 63 57 49 44 43 42
30 30 38 40 38 38 37 36 34 33 34 36 34 34 36 39 42 42 38 39 52 68 68 61 55 49 43 41 37 33 27 21
34 31 31 29 28 32 36 38 37 38 39 43 46 46 44 46 50 58 69 64 58 56 49 42 40 36 32 28 26 22 19 13
40 39 39 40 39 38 38 37 39 42 44 46 51 57 69 78 75 63 55 53 48 44 36 31 33 29 24 20 15 11 8 6
41 43 42 40 38 37 37 38 45 56 64 74 81 78 69 60 52 49 49 45 41 38 29 18 15 12 9 7 6 6 6 5

GFSFLT2_250_rhum_003.txt.gz
RH
100 100 100 89 97 94 96 100 98 83 96 97 99 65 68 72 66 86 78 83 79 96 77 75 62 43 37 49 50 34 22 13
100 100 100 94 88 93 90 99 96 100 88 81 70 73 100 91 84 74 95 100 79 80 60 51 46 46 51 57 47 36 19 15
100 88 82 99 100 100 100 100 98 79 94 100 100 95 97 100 98 100 95 94 77 38 24 25 20 40 56 37 27 29 19 19
100 100 100 100 100 100 92 95 100 100 95 99 96 94 96 100 91 89 92 59 33 30 27 20 15 45 54 21 17 18 21 29
99 100 100 99 100 81 89 100 97 94 99 100 100 96 100 100 88 62 56 42 43 38 41 24 22 21 17 16 20 22 20 23
100 100 96 79 90 100 99 97 100 92 98 100 100 99 85 69 54 52 60 59 44 53 53 48 36 30 26 24 24 24 24 22
100 100 90 99 99 100 95 92 94 100 100 100 94 96 78 66 60 58 50 35 44 68 68 69 52 36 37 35 28 25 25 29
90 80 88 99 96 97 98 100 100 100 100 100 93 93 72 67 51 51 44 50 63 79 83 84 74 51 46 37 29 26 25 29
100 100 100 91 96 100 100 100 99 100 96 96 80 63 53 51 51 56 69 58 97 85 97 92 81 58 42 34 37 39 41 42
100 98 98 89 73 79 85 95 82 74 88 100 99 100 81 94 85 100 100 100 94 100 94 83 64 47 40 42 44 42 41 40
66 63 60 60 62 77 73 73 78 97 100 100 100 100 100 100 100 100 100 100 100 89 76 48 45 46 45 44 43 40 39 40
54 67 72 78 100 69 68 70 80 97 100 100 100 100 100 100 100 100 100 100 92 48 44 52 55 50 48 47 50 50 45 45
83 79 73 69 59 60 68 75 71 74 88 77 66 62 69 87 89 56 46 35 45 58 55 50 45 44 43 46 48 52 59 68
42 38 32 28 32 38 38 38 40 41 39 37 36 34 32 29 33 47 60 58 54 50 45 50 61 56 48 45 42 41 42 40
22 26 27 27 31 33 36 35 30 31 37 43 51 53 54 54 53 53 51 47 46 48 44 40 40 41 40 39 35 30 28 32
38 39 44 47 52 55 50 48 47 43 42 41 41 43 42 41 39 40 42 42 42 46 51 49 47 44 43 43 43 41 39 36
50 44 42 40 37 36 37 36 36 35 34 34 34 34 35 36 38 44 48 51 53 48 49 50 50 51 47 43 38 36 31 24
44 45 43 40 36 35 33 33 33 33 34 34 33 34 42 48 52 55 53 50 51 54 58 54 48 45 35 31 27 20 16 13
37 35 33 31 28 26 26 27 28 30 31 33 48 53 59 63 59 58 59 59 62 62 54 51 42 32 20 13 11 9 7 5
39 37 34 33 35 37 37 37 40 48 58 68 74 72 64 59 60 60 57 68 70 52 39 28 18 14 10 7 6 5 5 5

GFSFLT2_250_rhum_009.txt.gz
RH
100 100 100 100 100 92 100 100 100 100 100 100 100 100 90 100 90 82 100 93 98 95 96 69 60 58 73 76 80 62 40 27
100 100 94 100 100 100 100 100 98 96 100 100 100 100 100 100 100 98 100 100 100 95 75 59 68 68 94 90 69 62 37 25
100 100 100 100 100 100 100 96 100 100 100 100 96 91 98 100 100 100 100 94 89 78 61 64 64 75 65 65 57 49 43 35
100 100 100 100 100 100 100 99 100 100 98 95 100 100 99 100 100 100 97 85 69 62 65 63 73 59 58 53 45 46 37 31
100 100 100 100 100 100 100 100 100 100 88 81 94 100 100 100 97 85 93 88 72 71 80 70 74 74 61 48 41 42 44 35
100 100 100 100 100 100 100 94 80 79 90 100 100 100 99 97 100 100 96 83 73 67 68 76 85 66 50 54 37 50 44 42
97 100 100 100 100 100 100 100 100 100 100 98 94 100 100 100 99 93 77 70 56 56 54 48 42 35 35 42 55 100 99 99
97 100 91 100 100 97 94 100 97 99 100 100 94 98 97 98 79 75 73 76 62 56 45 35 39 47 49 88 100 100 100 92
99 99 100 100 100 100 100 91 88 77 77 91 98 79 75 68 60 61 58 48 42 43 48 64 67 98 90 100 87 47 42 31
100 100 100 100 76 82 97 99 100 92 84 70 58 54 54 62 55 40 32 49 67 86 95 95 97 80 92 86 39 36 40 42
100 100 100 99 100 92 85 80 66 42 43 47 59 70 59 34 27 26 25 29 33 38 40 39 41 43 44 46 46 48 48 47
96 95 88 73 64 56 46 40 49 58 58 44 28 26 27 29 34 39 40 39 37 36 38 41 44 42 47 53 52 48 43 42
50 55 51 46 43 48 60 43 29 24 28 31 32 30 29 28 27 30 39 45 41 45 46 45 43 45 45 47 49 49 59 68
41 44 55 53 34 27 31 32 31 30 32 37 41 45 46 50 57 58 56 55 53 49 44 46 54 60 58 64 74 64 60 55
44 30 34 37 37 36 35 36 38 38 42 45 48 53 52 52 53 50 45 41 39 36 38 45 48 50 45 42 40 40 44 52
42 42 42 38 35 35 38 40 37 39 40 38 36 34 37 38 36 35 33 34 34 35 36 37 40 48 61 70 66 59 58 58
36 35 38 39 40 41 41 43 52 56 58 60 63 62 50 40 33 30 34 36 38 44 50 56 62 74 72 64 61 60 59 57
39 41 44 42 44 47 53 62 67 65 59 64 71 71 64 54 49 50 53 53 55 58 65 65 64 66 63 58 53 46 40 35
40 43 49 54 62 69 75 76 71 67 67 70 66 61 59 60 64 64 58 55 56 55 56 58 54 48 43 40 37 33 24 19
42 47 51 54 64 71 72 77 77 71 68 74 70 65 60 59 59 57 55 54 54 53 51 48 44 42 36 27 20 16 14 12

GFSFLT2_250_rhum_015.txt.gz
RH
100 100 100 100 100 100 100 98 85 69 94 100 100 100 100 100 100 100 100 83 93 82 86 100 100 86 88 100 94 94 95 95
100 100 100 100 100 100 91 96 98 100 100 100 100 100 100 100 97 84 99 100 99 99 100 64 100 100 98 100 100 95 84 74
100 100 100 100 100 100 100 100 100 100 100 100 100 100 100 100 98 89 88 100 99 100 80 86 100 100 100 93 99 80 98 75
100 100 100 100 100 100 100 100 100 100 100 100 100 100 100 100 99 96 100 100 96 93 100 100 100 100 94 91 95 88 79 71
100 100 100 100 100 100 100 100 100 100 100 100 100 100 100 100 100 100 100 100 100 100 96 81 100 100 93 77 77 76 62 54
100 100 100 100 100 100 100 100 100 100 100 100 100 95 100 100 100 100 100 100 100 100 100 100 89 91 87 75 58 54 54 48
100 100 100 100 100 100 100 100 100 100 100 100 100 100 100 100 100 100 100 100 100 100 98 80 70 64 61 53 46 40 35 27
100 100 100 100 100 100 100 100 100 100 100 100 100 100 100 100 100 100 100 100 93 92 88 73 66 56 50 40 28 23 26 25
89 100 100 100 100 100 100 100 100 100 100 100 100 100 100 100 100 98 93 98 87 82 75 72 53 37 28 21 22 26 27 22
96 100 100 100 99 100 99 100 100 100 100 100 100 100 98 100 90 88 85 78 59 51 48 36 27 24 23 21 20 20 19 19
79 79 96 100 100 99 97 99 90 91 99 100 100 100 98 93 93 79 60 48 37 31 24 22 22 24 25 24 24 31 32 26
92 89 92 100 100 100 100 100 98 94 97 100 100 92 73 53 46 37 30 23 22 22 23 27 34 42 40 40 39 40 42 44
100 99 98 93 93 100 100 100 85 81 82 81 66 45 39 32 23 22 23 27 28 30 37 42 46 42 43 51 53 51 51 52
97 76 82 76 71 71 69 55 47 42 38 36 29 24 26 35 41 37 38 40 45 53 59 60 57 54 50 50 53 58 59 58
74 64 57 48 42 44 49 43 32 28 25 24 30 35 32 37 42 47 49 54 59 60 59 55 53 51 49 49 49 49 50 52
38 50 58 67 48 38 31 28 26 27 30 32 35 38 48 53 50 54 56 58 53 51 52 49 48 47 45 43 39 36 35 37
60 49 52 39 32 29 27 26 26 25 27 32 40 44 47 48 48 51 53 50 53 56 53 51 50 46 44 43 41 40 38 36
55 43 35 33 32 31 29 30 33 36 36 38 43 44 46 47 51 54 50 55 60 60 58 55 50 48 48 46 44 43 36 31
38 36 36 37 37 38 40 41 39 36 42 50 51 49 52 54 59 58 64 65 64 59 58 57 57 54 55 54 55 47 29 20
46 51 54 58 56 51 54 69 97 77 73 51 55 56 56 61 57 64 70 69 64 71 69 67 56 59 65 54 36 26 19 12

GFSFLT2_250_rhum_021.txt.gz
RH
100 100 100 92 100 90 89 82 99 95 88 97 81 95 93 100 100 100 99 79 84 85 69 92 68 86 86 100 68 79 75 86
100 100 100 100 76 100 93 67 98 100 100 100 100 90 83 90 87 88 86 74 82 72 82 91 81 100 97 91 100 90 100 81
100 100 100 100 100 100 100 100 100 100 100 100 100 100 100 98 92 100 99 100 100 100 100 94 99 97 100 100 100 94 76 70
100 100 100 100 100 100 100 100 95 100 100 100 100 100 100 100 100 100 95 95 87 100 100 100 100 98 97 89 90 81 84 77
100 100 100 100 100 100 100 100 100 100 100 100 100 99 100 100 100 100 100 97 83 100 100 100 100 96 89 80 86 82 71 72
100 100 100 100 100 100 100 100 100 100 100 100 100 100 100 100 100 100 100 100 100 100 100 89 92 84 86 84 80 92 85 79
100 100 100 100 100 100 100 100 100 100 100 100 100 100 100 100 100 100 100 100 98 100 98 90 90 93 95 100 97 84 82 65
100 100 100 100 100 100 100 100 100 100 100 100 100 100 100 100 100 100 98 99 100 100 100 100 89 100 89 81 72 60 49 38
94 100 100 100 100 100 100 100 100 100 100 100 100 100 100 100 100 100 100 100 98 100 100 96 88 71 63 54 45 36 32 29
88 92 89 78 70 70 100 100 94 99 100 100 100 100 100 100 100 100 100 100 95 92 93 79 64 47 40 32 32 30 30 28
100 98 98 100 100 100 100 100 100 100 100 100 100 100 100 100 100 93 90 87 83 75 62 49 39 31 33 30 30 26 28 29
100 100 100 100 100 100 100 98 92 83 92 92 89 100 90 85 79 76 67 60 51 45 39 32 28 30 28 27 26 30 29 26
100 100 100 100 92 89 78 70 70 78 87 100 96 83 68 74 67 54 48 43 38 34 30 30 30 28 27 31 30 29 28 29
100 86 88 81 70 64 66 72 75 77 70 64 66 66 56 51 49 44 37 32 31 30 28 27 26 28 28 29 29 32 35 41
76 83 67 52 53 56 61 56 54 52 44 46 58 63 52 40 36 33 33 34 32 30 29 34 37 37 39 36 34 41 51 59
91 77 55 27 20 20 28 45 58 56 53 56 46 38 35 34 35 38 40 37 34 35 40 41 38 36 36 41 45 56 62 72
53 43 28 42 51 54 47 53 42 42 45 43 38 35 38 41 40 39 41 42 44 45 43 38 35 37 42 51 62 74 79 76
52 39 48 61 57 73 75 70 44 42 54 47 40 44 47 44 42 42 41 42 42 43 39 39 40 51 55 63 69 76 70 63
78 60 70 84 83 78 69 57 48 56 58 44 43 48 46 43 38 41 43 43 44 44 43 45 54 61 65 74 80 70 63 52
100 82 73 87 92 100 100 78 61 58 46 45 50 48 42 39 39 45 49 50 48 48 52 56 60 68 80 82 74 62 51 42

GFSFLT2_250_rhum_024.txt.gz
RH
31 73 68 47 89 100 99 77 64 44 72 94 83 87 92 100 99 89 81 66 67 69 51 45 46 49 59 67 42 46 98 100
24 56 100 100 100 100 97 79 100 100 100 99 73 100 100 100 100 100 90 70 85 74 100 100 66 82 53 58 58 100 100 96
40 89 100 100 100 100 100 100 96 97 100 91 100 100 100 100 95 84 97 100 100 96 100 100 89 72 91 100 100 86 63 84
90 100 100 100 100 100 100 100 100 100 100 100 100 97 100 100 100 97 100 100 91 93 93 77 94 100 100 98 100 90 92 90
100 100 100 100 100 100 100 100 100 100 100 100 100 100 99 100 100 100 100 100 98 100 93 88 100 98 97 100 93 78 73 75
100 100 100 100 100 100 100 100 100 100 100 100 100 100 100 100 100 100 91 100 100 100 100 100 100 100 86 84 87 90 87 87
100 100 100 100 100 100 100 100 100 100 100 92 100 100 100 100 100 100 100 100 100 100 91 76 88 98 83 98 96 90 90 74
100 100 100 100 100 100 100 100 100 100 100 100 100 100 100 100 100 100 100 100 100 99 100 100 95 88 93 90 81 63 54 43
100 100 100 100 100 100 100 100 100 100 100 100 100 100 100 100 100 100 100 100 92 100 98 94 82 82 78 71 58 50 39 31
100 100 100 100 100 100 100 100 100 100 92 95 98 96 100 100 100 100 100 98 99 100 89 80 70 60 48 39 34 31 29 28
97 99 100 100 100 100 100 100 98 80 78 69 92 88 100 100 97 96 98 99 93 77 65 53 45 38 33 31 30 30 29 28
73 76 71 64 57 71 77 90 88 74 76 98 99 96 94 82 81 84 85 73 61 48 45 38 33 31 33 38 38 34 34 35
92 82 100 93 100 100 100 92 83 86 96 85 73 69 70 74 70 61 51 45 42 35 33 33 36 36 34 33 33 34 34 35
98 99 99 100 100 100 97 93 85 71 64 64 61 64 66 50 49 49 40 34 35 38 39 37 33 34 37 37 38 42 44 45
100 100 100 100 100 100 95 85 69 47 45 46 38 42 49 43 38 38 41 39 43 40 36 36 40 43 42 49 53 52 49 52
100 100 96 82 66 59 60 64 54 34 49 52 44 35 37 42 48 46 40 40 40 39 41 42 46 48 50 53 59 55 53 57
79 80 66 62 58 53 45 37 44 55 41 28 30 33 42 50 48 42 40 40 43 42 43 46 49 51 53 55 53 54 56 64
70 62 67 70 57 73 63 70 51 43 34 26 38 43 49 50 45 43 45 44 43 45 50 50 53 51 52 53 54 58 62 62
64 52 55 64 80 100 100 75 60 65 50 50 49 50 52 53 47 48 47 50 50 58 59 53 53 53 54 56 58 63 66 67
48 67 79 71 97 100 98 92 83 88 77 61 48 61 50 46 52 53 54 54 57 58 53 49 52 57 59 62 66 71 70 63

GFSFLT2_250_rhum_027.txt.gz
RH
41 31 34 39 58 65 57 48 95 100 96 80 88 68 69 57 52 68 70 78 82 66 58 74 71 56 46 56 64 68 49 80
61 78 66 47 99 84 69 97 100 92 100 82 82 80 66 71 80 75 77 85 53 65 84 89 74 68 80 80 53 75 100 76
72 100 98 40 54 53 80 100 100 100 100 100 100 82 97 81 89 86 88 90 82 80 67 71 86 88 100 100 86 100 100 98
28 82 59 53 62 76 100 100 100 100 100 100 100 92 89 94 95 87 83 81 69 94 84 98 100 100 100 98 100 91 71 60
42 82 100 100 100 100 100 100 100 100 100 100 100 100 100 98 98 95 99 100 98 100 100 100 100 100 100 100 100 86 76 75
100 100 100 100 100 100 100 100 100 100 100 100 100 100 100 95 89 100 100 93 100 100 100 100 100 100 98 99 87 70 78 78
100 100 100 100 100 100 100 100 100 100 100 100 90 91 99 100 100 100 100 100 100 100 100 98 100 83 94 85 84 84 76 74
100 100 100 100 100 100 100 100 100 100 100 100 100 100 100 100 100 100 100 99 94 97 96 100 100 86 89 90 85 76 60 48
100 100 100 100 100 100 100 100 100 100 100 100 100 100 100 100 100 93 94 88 96 97 90 80 68 89 89 73 57 48 33 30
100 100 100 100 100 100 100 100 100 100 100 100 100 100 100 100 100 100 94 80 77 75 82 89 86 76 61 46 31 30 29 29
100 100 100 100 100 100 100 100 97 100 100 100 100 100 100 100 96 92 80 76 78 71 74 74 56 42 30 27 30 33 32 34
100 100 100 100 100 100 100 100 100 100 97 86 95 88 96 94 84 72 71 64 67 61 45 38 33 27 28 38 38 35 37 38
100 89 96 100 100 100 100 99 86 79 53 63 91 78 81 84 66 51 47 46 36 34 33 32 32 37 39 35 32 37 40 39
70 66 62 62 76 67 46 55 72 66 96 98 89 84 76 72 51 25 34 38 34 34 32 37 39 37 33 39 45 47 46 45
96 92 92 76 69 89 100 100 100 95 81 72 58 52 58 51 36 42 35 38 40 39 44 41 37 40 41 47 49 48 46 48
100 99 97 94 95 91 87 81 74 66 50 44 48 52 51 46 35 42 42 41 45 48 45 43 41 42 45 49 50 53 53 48
73 72 72 67 61 70 74 80 66 53 43 51 57 50 46 44 48 47 48 46 55 47 42 41 46 47 50 52 57 59 58 54
70 64 67 67 70 81 77 70 57 57 66 76 69 53 46 47 54 52 50 61 55 50 50 47 50 56 58 56 58 60 58 56
80 82 80 76 74 78 79 98 88 73 66 70 67 52 43 63 65 55 58 53 51 53 50 52 58 61 62 62 59 58 54 57
88 77 64 41 62 64 74 75 97 100 98 96 71 47 54 65 71 62 58 56 57 50 54 58 67 67 61 60 58 61 61 62